Retour au catalogue

COSMOS 2251 DEB

ActifVLEO
NORAD 38062·DEBRIS·🇷🇺 Russia

Lancé Jun 16, 1993 depuis Plesetsk Cosmodrome

Loading…

Prochains Passages (prochaines 24 heures)

TLE

VieillissantSource: Space-Track

Époque: Sep 13, 2026, 06:56 UTC

1 38062U 93036BRU 26256.28909439  .00020477  00000-0  13104-2 0  9996
2 38062  74.0001  89.5501 0016693 149.7853  24.6928 15.08417431671529

Suivez COSMOS 2251 DEB en temps réel avec AllMySat

Download on the App Store